Location: Degersen
(52.2871°N, 9.5716°E)
Time: 23:24:04
(UTC+00:00)

Cosmos 1844 Rocket - Pass Details

Date: 20 January 2026
Orbit: 822 x 845 km, 71.0° (Epoch: 17 February)

Event Time Altitude Azimuth Distance (km) Brightness Sun altitude
Exits shadow 04:46:44 16° 342° (NNW) 2,058 4.5 -22.7°
Drops below altitude 10° 04:49:45 10° 14° (NNE) 2,478 5.2 -22.3°
Sets 04:53:12 0° 35° (NE) 3,416 6.3 -21.7°
